TRA258Q LDSP-EHRD

Flight info

Callsign TRA258Q
Flight time 1h 57m
Altitude 38000
Route ZDA DCT MOBDO DCT SOTOV DCT KPT DCT MOMUK DCT USUDO DCT LIRSU DCT SOGRI L608 BUB Y28 HELEN
Aircraft B738/M-SDE2E3FGHIRWXY/LB1

Departure

Time 2026-05-07 14:35
Airport Split Saint Jerome Airport (LDSP)

Arrival

Time 2026-05-07 16:32
Airport Rotterdam The Hague Airport (EHRD)
Time Latitude Longitude Altitude Speed Heading
2026-05-07 13:45 43.53621 16.29667 58 ft 0 kts 94°
2026-05-07 14:31 43.53621 16.29676 57 ft 2 kts 79°
2026-05-07 14:31 43.53637 16.29674 58 ft 3 kts 307°
2026-05-07 14:31 43.53653 16.29626 58 ft 10 kts 299°
2026-05-07 14:32 43.53693 16.29530 60 ft 11 kts 275°
2026-05-07 14:32 43.53682 16.29428 61 ft 13 kts 247°
2026-05-07 14:32 43.53591 16.29252 63 ft 30 kts 232°
2026-05-07 14:32 43.53463 16.29021 65 ft 29 kts 233°
2026-05-07 14:33 43.53340 16.28795 63 ft 29 kts 232°
2026-05-07 14:33 43.53233 16.28632 60 ft 14 kts 200°
2026-05-07 14:33 43.53205 16.28575 59 ft 6 kts 346°
2026-05-07 14:33 43.53225 16.28596 60 ft 0 kts 52°
2026-05-07 14:34 43.53233 16.28609 60 ft 9 kts 52°
2026-05-07 14:34 43.53400 16.28907 65 ft 75 kts 51°
2026-05-07 14:34 43.53856 16.29729 59 ft 138 kts 52°
2026-05-07 14:34 43.54513 16.30921 293 ft 165 kts 53°
2026-05-07 14:35 43.55010 16.32289 1007 ft 163 kts 84°
2026-05-07 14:35 43.54884 16.33788 1711 ft 160 kts 111°
2026-05-07 14:35 43.54366 16.35154 2213 ft 168 kts 128°
2026-05-07 14:35 43.53480 16.36283 2709 ft 178 kts 146°
2026-05-07 14:36 43.52383 16.37109 3281 ft 183 kts 152°
2026-05-07 14:36 43.51218 16.37916 3836 ft 192 kts 152°
2026-05-07 14:36 43.50041 16.38759 4521 ft 195 kts 152°
2026-05-07 14:36 43.48836 16.39634 5151 ft 199 kts 153°
2026-05-07 14:37 43.47574 16.40457 5447 ft 200 kts 163°
2026-05-07 14:37 43.45038 16.39582 5617 ft 214 kts 225°
2026-05-07 14:37 43.44216 16.37784 5993 ft 234 kts 253°
2026-05-07 14:38 43.44231 16.35488 6505 ft 250 kts 283°
2026-05-07 14:38 43.44942 16.33244 6991 ft 267 kts 303°
2026-05-07 14:38 43.46183 16.31271 7647 ft 277 kts 313°
2026-05-07 14:38 43.47548 16.29417 8395 ft 281 kts 313°
2026-05-07 14:39 43.48927 16.27523 9209 ft 284 kts 312°
2026-05-07 14:39 43.50294 16.25573 10033 ft 287 kts 311°
2026-05-07 14:39 43.51693 16.23522 10637 ft 299 kts 310°
2026-05-07 14:39 43.53134 16.21382 11173 ft 313 kts 310°
2026-05-07 14:40 43.54632 16.19152 11793 ft 324 kts 310°
2026-05-07 14:40 43.56157 16.16881 12584 ft 329 kts 310°
2026-05-07 14:40 43.57716 16.14560 13388 ft 334 kts 310°
2026-05-07 14:40 43.59301 16.12200 14233 ft 337 kts 309°
2026-05-07 14:41 43.60898 16.09820 15097 ft 340 kts 309°
2026-05-07 14:41 43.62483 16.07459 15949 ft 343 kts 309°
2026-05-07 14:41 43.64125 16.05011 16788 ft 346 kts 309°
2026-05-07 14:41 43.65748 16.02590 17579 ft 350 kts 308°
2026-05-07 14:42 43.67399 16.00125 18359 ft 354 kts 308°
2026-05-07 14:42 43.69075 15.97618 19113 ft 357 kts 308°
2026-05-07 14:42 43.70764 15.95091 19850 ft 361 kts 308°
2026-05-07 14:42 43.72482 15.92515 20548 ft 366 kts 307°
2026-05-07 14:43 43.74197 15.89940 21227 ft 369 kts 307°
2026-05-07 14:43 43.75956 15.87297 21904 ft 373 kts 307°
2026-05-07 14:43 43.77700 15.84679 22545 ft 377 kts 307°
2026-05-07 14:43 43.79494 15.81983 23146 ft 381 kts 307°
2026-05-07 14:44 43.81296 15.79274 23734 ft 386 kts 307°
2026-05-07 14:44 43.83120 15.76527 24244 ft 392 kts 307°
2026-05-07 14:44 43.84963 15.73753 25011 ft 390 kts 307°
2026-05-07 14:44 43.86798 15.70988 25603 ft 392 kts 307°
2026-05-07 14:45 43.88635 15.68215 26165 ft 394 kts 307°
2026-05-07 14:45 43.90500 15.65394 26723 ft 395 kts 307°
2026-05-07 14:45 43.92347 15.62597 27291 ft 396 kts 307°
2026-05-07 14:45 43.94224 15.59748 27723 ft 400 kts 307°
2026-05-07 14:46 43.96102 15.56894 28131 ft 405 kts 307°
2026-05-07 14:46 43.97997 15.54016 28569 ft 408 kts 307°
2026-05-07 14:46 43.99929 15.51077 28972 ft 412 kts 307°
2026-05-07 14:46 44.01856 15.48140 29391 ft 415 kts 307°
2026-05-07 14:47 44.03798 15.45181 29859 ft 417 kts 307°
2026-05-07 14:47 44.05761 15.42190 30317 ft 419 kts 307°
2026-05-07 14:47 44.07748 15.39161 30760 ft 420 kts 307°
2026-05-07 14:47 44.09733 15.36133 31132 ft 423 kts 307°
2026-05-07 14:48 44.11787 15.33080 31683 ft 422 kts 307°
2026-05-07 14:48 44.13827 15.30144 32274 ft 419 kts 308°
2026-05-07 14:48 44.15849 15.27275 32909 ft 414 kts 308°
2026-05-07 14:48 44.17876 15.24409 33554 ft 408 kts 308°
2026-05-07 14:49 44.19886 15.21558 34151 ft 403 kts 308°
2026-05-07 14:49 44.21852 15.18755 34590 ft 401 kts 307°
2026-05-07 14:49 44.23788 15.15979 34891 ft 402 kts 307°
2026-05-07 14:49 44.25758 15.13142 35150 ft 404 kts 307°
2026-05-07 14:50 44.27693 15.10348 35435 ft 406 kts 307°
2026-05-07 14:50 44.29668 15.07492 35725 ft 408 kts 307°
2026-05-07 14:50 44.31620 15.04665 36052 ft 408 kts 307°
2026-05-07 14:50 44.33591 15.01808 36416 ft 408 kts 307°
2026-05-07 14:51 44.35582 14.98923 36883 ft 407 kts 308°
2026-05-07 14:51 44.37524 14.96106 37274 ft 406 kts 308°
2026-05-07 14:51 44.39510 14.93224 37609 ft 406 kts 307°
2026-05-07 14:51 44.41468 14.90376 37881 ft 407 kts 307°
2026-05-07 14:52 44.43419 14.87532 37986 ft 410 kts 307°
2026-05-07 14:52 44.45393 14.84652 37989 ft 411 kts 308°
2026-05-07 14:52 44.49320 14.78927 37984 ft 405 kts 308°
2026-05-07 14:53 44.53237 14.73199 37982 ft 408 kts 308°
2026-05-07 14:53 44.57159 14.67450 37983 ft 408 kts 308°
2026-05-07 14:54 44.61051 14.61733 37972 ft 406 kts 307°
2026-05-07 14:54 44.64967 14.55969 37978 ft 408 kts 307°
2026-05-07 14:55 44.68856 14.50231 37977 ft 408 kts 307°
2026-05-07 14:55 44.72774 14.44439 37964 ft 409 kts 307°
2026-05-07 14:56 44.76667 14.38673 37969 ft 409 kts 308°
2026-05-07 14:56 44.80564 14.32892 37969 ft 409 kts 307°
2026-05-07 14:57 44.84480 14.27066 37973 ft 409 kts 307°
2026-05-07 14:57 44.88367 14.21274 37969 ft 410 kts 307°
2026-05-07 14:58 44.92286 14.15419 37977 ft 409 kts 307°
2026-05-07 14:58 44.96198 14.09564 37972 ft 411 kts 307°
2026-05-07 14:59 45.00097 14.03718 37975 ft 411 kts 307°
2026-05-07 14:59 45.04015 13.97826 37978 ft 411 kts 307°
2026-05-07 15:00 45.07934 13.91924 37980 ft 412 kts 307°
2026-05-07 15:00 45.11840 13.86027 37982 ft 411 kts 307°
2026-05-07 15:01 45.15749 13.80116 37969 ft 411 kts 307°
2026-05-07 15:01 45.19642 13.74210 37964 ft 413 kts 307°
2026-05-07 15:02 45.23542 13.68284 37971 ft 412 kts 307°
2026-05-07 15:02 45.27443 13.62347 37973 ft 412 kts 307°
2026-05-07 15:03 45.31359 13.56371 37968 ft 412 kts 307°
2026-05-07 15:03 45.35249 13.50423 37969 ft 413 kts 307°
2026-05-07 15:04 45.39167 13.44415 37962 ft 412 kts 307°
2026-05-07 15:04 45.43036 13.38474 37979 ft 413 kts 307°
2026-05-07 15:05 45.46936 13.32469 37965 ft 412 kts 306°
2026-05-07 15:05 45.50825 13.26474 37964 ft 412 kts 306°
2026-05-07 15:06 45.54702 13.20478 37964 ft 414 kts 306°
2026-05-07 15:06 45.58590 13.14455 37973 ft 412 kts 306°
2026-05-07 15:07 45.62449 13.08462 37946 ft 412 kts 306°
2026-05-07 15:07 45.66321 13.02436 37954 ft 413 kts 306°
2026-05-07 15:08 45.70207 12.96376 37953 ft 413 kts 306°
2026-05-07 15:08 45.74081 12.90322 37939 ft 413 kts 307°
2026-05-07 15:09 45.77940 12.84278 37940 ft 413 kts 306°
2026-05-07 15:09 45.81808 12.78203 37942 ft 413 kts 307°
2026-05-07 15:10 45.85653 12.72153 37944 ft 414 kts 307°
2026-05-07 15:10 45.89532 12.66037 37943 ft 414 kts 307°
2026-05-07 15:11 45.93382 12.59952 37941 ft 414 kts 307°
2026-05-07 15:11 45.97243 12.53837 37958 ft 415 kts 307°
2026-05-07 15:12 46.01112 12.47694 37951 ft 414 kts 307°
2026-05-07 15:12 46.04979 12.41542 37946 ft 414 kts 307°
2026-05-07 15:13 46.08841 12.35383 37969 ft 415 kts 307°
2026-05-07 15:13 46.12680 12.29252 37976 ft 414 kts 306°
2026-05-07 15:14 46.16545 12.23056 37981 ft 416 kts 306°
2026-05-07 15:14 46.20404 12.16857 37979 ft 416 kts 307°
2026-05-07 15:15 46.24275 12.10629 37982 ft 417 kts 307°
2026-05-07 15:15 46.28119 12.04431 37983 ft 416 kts 307°
2026-05-07 15:16 46.31966 11.98214 37984 ft 416 kts 307°
2026-05-07 15:16 46.35876 11.91866 37981 ft 429 kts 307°
2026-05-07 15:17 46.39865 11.85386 37973 ft 431 kts 307°
2026-05-07 15:17 46.44136 11.79248 37977 ft 433 kts 314°
2026-05-07 15:18 46.48791 11.73706 37980 ft 435 kts 317°
2026-05-07 15:18 46.53579 11.68282 38005 ft 435 kts 317°
2026-05-07 15:19 46.58377 11.62847 38011 ft 435 kts 317°
2026-05-07 15:19 46.63115 11.57432 38024 ft 434 kts 317°
2026-05-07 15:20 46.67876 11.51951 38024 ft 435 kts 317°
2026-05-07 15:20 46.72595 11.46494 38008 ft 435 kts 317°
2026-05-07 15:21 46.77335 11.40994 38017 ft 436 kts 317°
2026-05-07 15:21 46.82069 11.35487 38011 ft 435 kts 317°
2026-05-07 15:22 46.86785 11.29989 38021 ft 434 kts 317°
2026-05-07 15:22 46.91496 11.24481 38012 ft 434 kts 317°
2026-05-07 15:23 46.96243 11.18980 38021 ft 435 kts 319°
2026-05-07 15:23 47.01111 11.13774 38023 ft 436 kts 320°
2026-05-07 15:24 47.06067 11.08621 38037 ft 437 kts 320°
2026-05-07 15:24 47.10923 11.03546 38048 ft 437 kts 320°
2026-05-07 15:25 47.15858 10.98344 38046 ft 437 kts 320°
2026-05-07 15:25 47.20786 10.93113 38051 ft 436 kts 320°
2026-05-07 15:26 47.25663 10.87911 38049 ft 436 kts 320°
2026-05-07 15:26 47.30587 10.82642 38041 ft 436 kts 320°
2026-05-07 15:27 47.35486 10.77388 38036 ft 437 kts 320°
2026-05-07 15:27 47.40403 10.72101 38037 ft 437 kts 320°
2026-05-07 15:28 47.45292 10.66834 38031 ft 438 kts 320°
2026-05-07 15:28 47.50226 10.61505 38031 ft 437 kts 320°
2026-05-07 15:29 47.55130 10.56195 38022 ft 436 kts 321°
2026-05-07 15:29 47.60041 10.50866 38023 ft 437 kts 321°
2026-05-07 15:30 47.64925 10.45553 38024 ft 437 kts 321°
2026-05-07 15:30 47.69829 10.40204 38023 ft 436 kts 320°
2026-05-07 15:31 47.74221 10.34028 38019 ft 431 kts 303°
2026-05-07 15:31 47.77015 10.26265 38016 ft 427 kts 290°
2026-05-07 15:32 47.79203 10.18101 38013 ft 425 kts 289°
2026-05-07 15:32 47.81292 10.09889 38014 ft 425 kts 289°
2026-05-07 15:33 47.83541 10.01818 38010 ft 426 kts 296°
2026-05-07 15:33 47.85206 9.98163 38013 ft 430 kts 308°
2026-05-07 15:33 47.87285 9.94973 38016 ft 434 kts 314°
2026-05-07 15:34 47.91837 9.89075 38010 ft 435 kts 317°
2026-05-07 15:34 47.96493 9.83330 38013 ft 436 kts 317°
2026-05-07 15:35 48.01154 9.77521 38012 ft 435 kts 317°
2026-05-07 15:35 48.05776 9.71670 38001 ft 434 kts 317°
2026-05-07 15:36 48.10350 9.65774 38007 ft 434 kts 315°
2026-05-07 15:36 48.14714 9.59597 38003 ft 434 kts 313°
2026-05-07 15:37 48.19009 9.53264 37998 ft 434 kts 313°
2026-05-07 15:37 48.23317 9.46908 38001 ft 435 kts 313°
2026-05-07 15:38 48.27642 9.40558 38001 ft 435 kts 313°
2026-05-07 15:38 48.31965 9.34225 37997 ft 436 kts 313°
2026-05-07 15:39 48.36302 9.27869 37996 ft 435 kts 313°
2026-05-07 15:39 48.40621 9.21529 37991 ft 434 kts 313°
2026-05-07 15:40 48.44940 9.15174 37991 ft 434 kts 313°
2026-05-07 15:40 48.49262 9.08799 37996 ft 435 kts 313°
2026-05-07 15:41 48.53574 9.02422 37997 ft 435 kts 313°
2026-05-07 15:41 48.57870 8.96053 37999 ft 435 kts 313°
2026-05-07 15:42 48.62198 8.89619 38000 ft 436 kts 313°
2026-05-07 15:42 48.66513 8.83189 37997 ft 435 kts 313°
2026-05-07 15:43 48.70822 8.76753 38002 ft 436 kts 313°
2026-05-07 15:43 48.75113 8.70327 38008 ft 436 kts 313°
2026-05-07 15:44 48.79437 8.63834 38004 ft 436 kts 313°
2026-05-07 15:44 48.83740 8.57357 38015 ft 436 kts 313°
2026-05-07 15:45 48.88045 8.50859 38016 ft 436 kts 313°
2026-05-07 15:45 48.92334 8.44370 38020 ft 436 kts 313°
2026-05-07 15:46 48.98774 8.34596 38027 ft 436 kts 313°
2026-05-07 15:47 49.03055 8.28077 38024 ft 436 kts 313°
2026-05-07 15:47 49.07349 8.21521 38012 ft 437 kts 313°
2026-05-07 15:48 49.11617 8.14987 38003 ft 437 kts 313°
2026-05-07 15:48 49.15899 8.08416 37999 ft 437 kts 313°
2026-05-07 15:49 49.20177 8.01835 38002 ft 437 kts 313°
2026-05-07 15:49 49.24442 7.95255 38006 ft 436 kts 313°
2026-05-07 15:50 49.28714 7.88648 38011 ft 436 kts 313°
2026-05-07 15:50 49.32978 7.82035 38007 ft 436 kts 313°
2026-05-07 15:51 49.37247 7.75399 38012 ft 436 kts 313°
2026-05-07 15:51 49.41509 7.68755 38020 ft 437 kts 313°
2026-05-07 15:52 49.45766 7.62101 38025 ft 437 kts 313°
2026-05-07 15:52 49.49995 7.55476 38022 ft 437 kts 313°
2026-05-07 15:53 49.54260 7.48774 38029 ft 438 kts 313°
2026-05-07 15:53 49.58497 7.42101 38024 ft 437 kts 313°
2026-05-07 15:54 49.62776 7.35343 38027 ft 437 kts 313°
2026-05-07 15:54 49.67002 7.28651 38030 ft 437 kts 312°
2026-05-07 15:55 49.71219 7.21954 38028 ft 437 kts 312°
2026-05-07 15:55 49.75462 7.15198 38025 ft 437 kts 312°
2026-05-07 15:56 49.79673 7.08478 38024 ft 436 kts 312°
2026-05-07 15:56 49.83893 7.01722 38022 ft 437 kts 312°
2026-05-07 15:57 49.88126 6.94929 38020 ft 436 kts 312°
2026-05-07 15:57 49.92319 6.88182 38027 ft 437 kts 312°
2026-05-07 15:58 49.96531 6.81386 38021 ft 437 kts 313°
2026-05-07 15:58 50.00732 6.74590 38025 ft 437 kts 312°
2026-05-07 15:59 50.04944 6.67758 38019 ft 437 kts 312°
2026-05-07 15:59 50.09145 6.60925 38023 ft 437 kts 312°
2026-05-07 16:00 50.13321 6.54116 38021 ft 436 kts 312°
2026-05-07 16:00 50.17495 6.47289 38010 ft 436 kts 312°
2026-05-07 16:01 50.21329 6.39975 38012 ft 435 kts 305°
2026-05-07 16:01 50.24788 6.32250 38006 ft 435 kts 302°
2026-05-07 16:02 50.28200 6.24432 38007 ft 435 kts 303°
2026-05-07 16:02 50.31657 6.16568 38007 ft 435 kts 303°
2026-05-07 16:03 50.35104 6.08785 38005 ft 435 kts 303°
2026-05-07 16:03 50.38552 6.00977 38005 ft 435 kts 302°
2026-05-07 16:04 50.41864 5.93042 38004 ft 435 kts 301°
2026-05-07 16:04 50.45106 5.85079 38009 ft 434 kts 301°
2026-05-07 16:05 50.48363 5.77071 38016 ft 435 kts 301°
2026-05-07 16:05 50.51625 5.69068 38020 ft 434 kts 301°
2026-05-07 16:06 50.54880 5.61081 37756 ft 428 kts 301°
2026-05-07 16:06 50.56459 5.57203 37376 ft 426 kts 301°
2026-05-07 16:06 50.58057 5.53273 36845 ft 428 kts 301°
2026-05-07 16:06 50.59649 5.49353 36250 ft 431 kts 301°
2026-05-07 16:07 50.61275 5.45342 35685 ft 432 kts 302°
2026-05-07 16:07 50.62865 5.41416 35461 ft 423 kts 302°
2026-05-07 16:07 50.64454 5.37488 35256 ft 423 kts 301°
2026-05-07 16:07 50.66038 5.33563 35057 ft 428 kts 301°
2026-05-07 16:08 50.67633 5.29605 34807 ft 428 kts 301°
2026-05-07 16:08 50.69227 5.25644 34198 ft 427 kts 301°
2026-05-07 16:08 50.70828 5.21661 33489 ft 428 kts 301°
2026-05-07 16:08 50.72423 5.17685 32759 ft 428 kts 301°
2026-05-07 16:09 50.73993 5.13768 32160 ft 425 kts 301°
2026-05-07 16:09 50.75585 5.09792 31623 ft 421 kts 301°
2026-05-07 16:09 50.77134 5.05915 31074 ft 417 kts 301°
2026-05-07 16:09 50.78661 5.02089 30503 ft 414 kts 301°
2026-05-07 16:10 50.80196 4.98235 29936 ft 409 kts 301°
2026-05-07 16:10 50.81688 4.94484 29390 ft 405 kts 300°
2026-05-07 16:10 50.83181 4.90726 28847 ft 401 kts 301°
2026-05-07 16:10 50.84655 4.87008 28303 ft 397 kts 300°
2026-05-07 16:11 50.86097 4.83368 27768 ft 394 kts 301°
2026-05-07 16:11 50.87553 4.79683 27230 ft 390 kts 301°
2026-05-07 16:11 50.88989 4.76046 26696 ft 386 kts 301°
2026-05-07 16:11 50.90402 4.72463 26169 ft 382 kts 301°
2026-05-07 16:12 50.91792 4.68932 25644 ft 379 kts 301°
2026-05-07 16:12 50.93187 4.65385 25108 ft 375 kts 301°
2026-05-07 16:12 50.94562 4.61881 24591 ft 373 kts 300°
2026-05-07 16:12 50.95931 4.58388 24077 ft 377 kts 300°
2026-05-07 16:13 50.97331 4.54813 23539 ft 376 kts 301°
2026-05-07 16:13 50.98692 4.51333 23014 ft 372 kts 301°
2026-05-07 16:13 51.00040 4.47882 22496 ft 367 kts 301°
2026-05-07 16:13 51.01385 4.44435 21980 ft 363 kts 301°
2026-05-07 16:14 51.02705 4.41047 21472 ft 359 kts 301°
2026-05-07 16:14 51.04004 4.37707 20970 ft 355 kts 301°
2026-05-07 16:14 51.05223 4.34572 20495 ft 352 kts 300°
2026-05-07 16:14 51.06496 4.31290 20000 ft 348 kts 300°
2026-05-07 16:15 51.07762 4.28024 19507 ft 349 kts 300°
2026-05-07 16:15 51.09044 4.24709 19001 ft 353 kts 300°
2026-05-07 16:15 51.10321 4.21403 18557 ft 347 kts 300°
2026-05-07 16:15 51.11571 4.18167 18101 ft 342 kts 300°
2026-05-07 16:16 51.12816 4.14936 17585 ft 338 kts 300°
2026-05-07 16:16 51.14027 4.11794 17148 ft 336 kts 301°
2026-05-07 16:16 51.15280 4.08534 16619 ft 341 kts 300°
2026-05-07 16:16 51.16506 4.05342 16137 ft 338 kts 301°
2026-05-07 16:17 51.17734 4.02142 15646 ft 334 kts 301°
2026-05-07 16:17 51.18928 3.99027 15154 ft 330 kts 301°
2026-05-07 16:17 51.20113 3.95931 14685 ft 326 kts 301°
2026-05-07 16:17 51.21292 3.92859 14204 ft 323 kts 301°
2026-05-07 16:18 51.22623 3.89968 13725 ft 329 kts 312°
2026-05-07 16:18 51.24446 3.87791 13256 ft 328 kts 334°
2026-05-07 16:18 51.26604 3.86860 12806 ft 325 kts 354°
2026-05-07 16:18 51.28859 3.86772 12333 ft 321 kts 359°
2026-05-07 16:19 51.31072 3.86769 11872 ft 318 kts 359°
2026-05-07 16:19 51.33281 3.86742 11406 ft 318 kts 359°
2026-05-07 16:19 51.35521 3.86697 10935 ft 322 kts 359°
2026-05-07 16:19 51.37724 3.86645 10511 ft 317 kts 359°
2026-05-07 16:20 51.39913 3.86622 10295 ft 305 kts
2026-05-07 16:20 51.41973 3.87055 10200 ft 291 kts 16°
2026-05-07 16:20 51.43747 3.88452 10009 ft 281 kts 34°
2026-05-07 16:20 51.45298 3.90323 9634 ft 279 kts 39°
2026-05-07 16:21 51.46803 3.92254 9285 ft 277 kts 38°
2026-05-07 16:21 51.48324 3.94141 8952 ft 273 kts 37°
2026-05-07 16:21 51.49826 3.95940 8618 ft 270 kts 37°
2026-05-07 16:21 51.51339 3.97712 8289 ft 267 kts 36°
2026-05-07 16:22 51.52829 3.99437 7967 ft 264 kts 36°
2026-05-07 16:22 51.54328 4.01169 7635 ft 261 kts 36°
2026-05-07 16:22 51.55795 4.02866 7304 ft 258 kts 36°
2026-05-07 16:22 51.57211 4.04509 7012 ft 249 kts 37°
2026-05-07 16:23 51.58582 4.06101 6710 ft 241 kts 37°
2026-05-07 16:23 51.59929 4.07668 6417 ft 234 kts 37°
2026-05-07 16:23 51.61237 4.09192 6130 ft 232 kts 37°
2026-05-07 16:23 51.62538 4.10710 5838 ft 230 kts 37°
2026-05-07 16:24 51.63829 4.12216 5549 ft 223 kts 37°
2026-05-07 16:24 51.65098 4.13522 5278 ft 217 kts 21°
2026-05-07 16:24 51.66591 4.13781 5045 ft 218 kts 348°
2026-05-07 16:24 51.67981 4.12817 4815 ft 218 kts 332°
2026-05-07 16:25 51.69308 4.11618 4550 ft 217 kts 332°
2026-05-07 16:25 51.70609 4.10453 4299 ft 215 kts 333°
2026-05-07 16:25 51.72027 4.09722 4028 ft 211 kts
2026-05-07 16:25 51.73430 4.10166 3808 ft 206 kts 21°
2026-05-07 16:26 51.74779 4.10995 3606 ft 206 kts 22°
2026-05-07 16:26 51.76108 4.11829 3421 ft 204 kts 22°
2026-05-07 16:26 51.77425 4.12652 3299 ft 204 kts 22°
2026-05-07 16:26 51.78321 4.13213 3214 ft 204 kts 22°
2026-05-07 16:27 51.80081 4.14312 3044 ft 202 kts 22°
2026-05-07 16:27 51.81356 4.15209 2912 ft 201 kts 33°
2026-05-07 16:27 51.82452 4.16607 2790 ft 199 kts 43°
2026-05-07 16:27 51.83482 4.18134 2660 ft 199 kts 43°
2026-05-07 16:28 51.84500 4.19652 2531 ft 198 kts 43°
2026-05-07 16:28 51.85508 4.21137 2404 ft 197 kts 40°
2026-05-07 16:28 51.86626 4.22423 2275 ft 192 kts 37°
2026-05-07 16:28 51.87555 4.23864 2146 ft 182 kts 54°
2026-05-07 16:29 51.88229 4.25496 2006 ft 174 kts 57°
2026-05-07 16:29 51.88887 4.27131 1979 ft 167 kts 56°
2026-05-07 16:29 51.89499 4.28644 1984 ft 157 kts 56°
2026-05-07 16:29 51.90087 4.30101 1890 ft 155 kts 56°
2026-05-07 16:30 51.90659 4.31521 1692 ft 142 kts 56°
2026-05-07 16:30 51.91177 4.32806 1598 ft 135 kts 56°
2026-05-07 16:30 51.91693 4.34087 1309 ft 134 kts 56°
2026-05-07 16:30 51.92194 4.35332 1144 ft 134 kts 54°
2026-05-07 16:31 51.92707 4.36603 956 ft 137 kts 54°
2026-05-07 16:31 51.93225 4.37906 782 ft 136 kts 56°
2026-05-07 16:31 51.93750 4.39211 566 ft 139 kts 53°
2026-05-07 16:31 51.94299 4.40527 394 ft 141 kts 54°
2026-05-07 16:32 51.94821 4.41859 211 ft 140 kts 54°
2026-05-07 16:32 51.95352 4.43184 8 ft 139 kts 54°
2026-05-07 16:32 51.95772 4.44233 -7 ft 75 kts 56°
2026-05-07 16:32 51.95945 4.44666 -7 ft 39 kts 57°
2026-05-07 16:33 51.96074 4.44989 -7 ft 30 kts 57°
2026-05-07 16:33 51.96154 4.45222 -7 ft 18 kts 85°
2026-05-07 16:33 51.96111 4.45376 -7 ft 13 kts 139°
2026-05-07 16:33 51.96029 4.45361 -7 ft 13 kts 227°
2026-05-07 16:34 51.95978 4.45242 -7 ft 12 kts 243°
2026-05-07 16:34 51.95930 4.45116 -7 ft 16 kts 235°
2026-05-07 16:34 51.95857 4.44939 -7 ft 19 kts 237°
2026-05-07 16:34 51.95785 4.44761 -7 ft 18 kts 237°
2026-05-07 16:35 51.95714 4.44582 -7 ft 18 kts 237°
2026-05-07 16:35 51.95644 4.44407 -7 ft 18 kts 237°
2026-05-07 16:35 51.95576 4.44235 -7 ft 18 kts 236°
2026-05-07 16:35 51.95506 4.44063 -7 ft 18 kts 237°
2026-05-07 16:36 51.95440 4.43893 -7 ft 17 kts 237°
2026-05-07 16:36 51.95372 4.43725 -7 ft 17 kts 237°
2026-05-07 16:36 51.95306 4.43560 -7 ft 16 kts 237°
2026-05-07 16:36 51.95261 4.43452 -7 ft 9 kts 223°
2026-05-07 16:37 51.95202 4.43478 -7 ft 9 kts 147°
2026-05-07 16:37 51.95143 4.43540 -7 ft 12 kts 146°
2026-05-07 16:37 51.95056 4.43630 -7 ft 15 kts 149°
2026-05-07 16:37 51.94973 4.43716 -7 ft 11 kts 147°
2026-05-07 16:38 51.94920 4.43688 -7 ft 9 kts 240°
2026-05-07 16:38 51.94910 4.43620 -7 ft 5 kts 307°
2026-05-07 16:38 51.94936 4.43590 -7 ft 0 kts 326°